Regional & State Weather Roundups


050 
ASUS43 KFSD 220702
RWRSD 
WEATHER ROUNDUP FOR SOUTH DAKOTA
NATIONAL WEATHER SERVICE SIOUX FALLS SD
100 AM CST THU FEB 22 2018
NOTE: "FAIR" INDICATES FEW OR NO CLOUDS BELOW 12,000 FEET WITH NO
SIGNIFICANT WEATHER AND/OR OBSTRUCTIONS TO VISIBILITY.
SDZ001>005-009-010-012>017-220800-
NORTHWEST AND NORTH CENTRAL SOUTH DAKOTA
  
CITY           SKY/WX    TMP DP  RH WIND       PRES   REMARKS
BUFFALO          N/A     -6 -12  75 S6        30.10F WCI -19          
FAITH            N/A     -5  -8  87 SE5       30.23F WCI -16          
MOBRIDGE       FAIR       1  -4  79 CALM      30.31F                  
$$
 
SDZ012>016-024>037-041>051-057-063-072>074-220800-
SOUTHWEST AND SOUTH CENTRAL SOUTH DAKOTA
  
CITY           SKY/WX    TMP DP  RH WIND       PRES   REMARKS
RAPID CTY ARPT FAIR       3  -4  72 E6        30.16F WCI  -8          
PIERRE         FAIR       9   4  80 SE10      30.34F WCI  -5          
CUSTER         FAIR       7   1  76 CALM      30.05F                  
ELLSWORTH AFB  FAIR       9   1  68 S6        30.14F WCI  -1          
PHILIP         FAIR       5   2  87 CALM      30.27F                  
PINE RIDGE     MOCLDY    17   8  67 S14       30.19F WCI   3          
SPEARFISH        N/A     10  -4  52 CALM      30.11F                  
WINNER         FAIR      20   9  62 S8        30.35R WCI  10          
$$
 
SDZ004>011-016>023-039-040-220800-
NORTHEAST SOUTH DAKOTA
  
CITY           SKY/WX    TMP DP  RH WIND       PRES   REMARKS
ABERDEEN       FAIR       5  -1  76 S17       30.44F WCI -14          
WATERTOWN      FAIR       3  -1  83 S7        30.46S WCI  -9          
BROOKINGS      FAIR       6   1  80 CALM      30.49S                  
SISSETON         N/A     -4  -8  83 CALM      30.51F                  
$$
 
SDZ017-020-022-023-036>040-048>070-220800-
SOUTHEAST SOUTH DAKOTA
  
CITY           SKY/WX    TMP DP  RH WIND       PRES   REMARKS
SIOUX FALLS    FAIR      11   5  77 CALM      30.51F                  
HURON          FAIR       6   1  80 SE6       30.47F WCI  -4          
CHAMBERLAIN    FAIR      12   7  81 E6        30.40F WCI   2          
MITCHELL       FAIR      12   6  77 SE8       30.48F WCI   0          
YANKTON        FAIR      15   8  73 E3        30.51S                  
$$
 
ABBREVIATIONS USED IN REMARKS
   TC - TEMPERATURE IN CELSIUS
  WCI - WIND CHILL INDEX
   HX - HEAT INDEX
  VSB - VISIBILITY
  

051 
ASUS43 KFSD 220702
RWRFSD
WEATHER ROUNDUP FOR SE SOUTH DAKOTA/SW MINNESOTA/NW IOWA
NATIONAL WEATHER SERVICE SIOUX FALLS SD
100 AM CST THU FEB 22 2018
NOTE: "FAIR" INDICATES FEW OR NO CLOUDS BELOW 12,000 FEET WITH NO
SIGNIFICANT WEATHER AND OR OBSTRUCTIONS TO VISIBILITY.
SDZ038>040-050-052>070-220800-
SOUTHEAST SOUTH DAKOTA
  
CITY           SKY/WX    TMP DP  RH WIND       PRES   REMARKS
BROOKINGS      FAIR       6   1  80 CALM      30.49S                  
CHAMBERLAIN    FAIR      12   7  81 E6        30.40F WCI   2          
HURON          FAIR       6   1  80 SE6       30.47F WCI  -4          
MADISON        PTSUNNY    9   7  92 S6        30.47F WCI  -1          
MITCHELL       FAIR      12   6  77 SE8       30.48F WCI   0          
SIOUX FALLS    FAIR      11   5  77 CALM      30.51F                  
WINNER         FAIR      20   9  62 S8        30.35R WCI  10          
YANKTON        FAIR      15   8  73 E3        30.51S                  
$$
MNZ071-072-080-081-089-090-097-098-220800-
SOUTHWEST MINNESOTA
  
CITY           SKY/WX    TMP DP  RH WIND       PRES   REMARKS
FAIRMONT       FAIR       9   4  80 E6        30.56F WCI  -1          
JACKSON        MOCLDY    10   5  79 SE7       30.52F WCI   0          
LUVERNE        FAIR      10   5  79 CALM      30.52F                  
MARSHALL       CLOUDY     4  -1  80 S3        30.54F                  
MONTEVIDEO     FAIR       1  -2  85 S7        30.56F WCI -11          
PIPESTONE      FAIR       9   3  78 S6        30.49S WCI  -1          
REDWOOD FALLS  FAIR       5   1  83 E3        30.56F                  
TRACY          FAIR       8   4  82 SE5       30.52F WCI   0          
WORTHINGTON    MOCLDY    13   8  81 SE7       30.50F WCI   3          
$$
IAZ001>003-012>014-020>022-031-032-NEZ013-014-SDZ071-220800-
NORTHWEST IOWA
  
CITY           SKY/WX    TMP DP  RH WIND       PRES   REMARKS
CHEROKEE       CLOUDY    20  15  82 E3        30.53F                  
DENISON        CLOUDY    21  16  79 SE6G12    30.55R WCI  14          
ESTHERVILLE    FAIR      11   7  84 E8        30.53F WCI  -1          
LE MARS        CLOUDY    18  12  79 E5        30.51F WCI  11          
ORANGE CITY    CLOUDY    18  16  93 E6        30.50F WCI   9          
SHELDON        CLOUDY    12  10  92 SE5       30.50F WCI   4          
SIOUX CITY     CLOUDY    20  12  71 E6        30.52F WCI  12          
SPENCER        MIX PCPN  14  10  84 NE6       30.51F WCI   5          
STORM LAKE     CLOUDY    19  14  79 E9        30.50F WCI   9          
$$
 
ABBREVIATIONS USED IN REMARKS
   TC - TEMPERATURE IN CELSIUS
  WCI - WIND CHILL INDEX
   HX - HEAT INDEX
  VSB - VISIBILITY